CW7693 Weather Reports


time (UTC)temp
F
wind
direction
speed
knots
gust
knots
rain 1hr
in
rain 24hr
in
rain mn
in
humidity
%
barometer
mb
20260906222306 60 0 0.0 0.0 0.00 0.00 0.00 87 1024.3
20260906221304 60 2 0.0 1.7 0.00 0.00 0.00 87 1024.3
20260906220306 61 2 0.0 1.7 0.00 0.00 0.00 86 1024.3
20260906215804 61 0 0.0 0.0 0.00 0.00 0.00 86 1024.3
20260906214304 61 0 0.0 0.0 0.00 0.00 0.00 86 1024.5
20260906213804 62 0 0.0 0.0 0.00 0.00 0.00 86 1024.4
20260906212804 62 0 0.0 0.0 0.00 0.00 0.00 85 1024.5
20260906211303 62 0 0.0 0.0 0.00 0.00 0.00 84 1024.4
20260906210304 62 0 0.0 0.0 0.00 0.00 0.00 84 1024.4
20260906205804 62 0 0.0 0.0 0.00 0.00 0.00 84 1024.3
20260906205306 62 0 0.0 0.0 0.00 0.00 0.00 84 1024.3
20260906204304 63 0 0.0 0.0 0.00 0.00 0.00 84 1024.3
20260906203804 63 0 0.0 0.0 0.00 0.00 0.00 83 1024.3
20260906201804 63 0 0.0 2.6 0.00 0.00 0.00 82 1024.3
20260906201304 63 0 0.9 2.6 0.00 0.00 0.00 82 1024.3
20260906200804 64 0 0.0 1.7 0.00 0.00 0.00 81 1024.3
20260906194804 65 0 1.7 2.6 0.00 0.00 0.00 80 1024.4
20260906194304 65 0 1.7 2.6 0.00 0.00 0.00 79 1024.3
20260906193804 65 0 0.0 2.6 0.00 0.00 0.00 79 1024.4
20260906193304 65 1 0.9 2.6 0.00 0.00 0.00 79 1024.4
20260906192804 65 0 1.7 2.6 0.00 0.00 0.00 79 1024.4
20260906191804 66 0 0.9 2.6 0.00 0.00 0.00 78 1024.5
20260906191304 66 0 0.0 0.0 0.00 0.00 0.00 78 1024.5
20260906190804 66 0 0.0 0.0 0.00 0.00 0.00 77 1024.5
20260906190304 66 0 0.0 0.0 0.00 0.00 0.00 77 1024.5
20260906185804 67 0 0.0 0.9 0.00 0.00 0.00 76 1024.4
20260906185306 67 0 0.0 0.9 0.00 0.00 0.00 75 1024.3
20260906184304 67 0 0.0 2.6 0.00 0.00 0.00 75 1024.3
20260906183804 68 155 0.0 2.6 0.00 0.00 0.00 75 1024.4
20260906183304 68 155 0.9 2.6 0.00 0.00 0.00 74 1024.3
20260906182804 68 150 0.0 0.0 0.00 0.00 0.00 74 1024.4
20260906182306 68 1 0.0 1.7 0.00 0.00 0.00 74 1024.2
20260906181804 68 16 0.0 2.6 0.00 0.00 0.00 73 1024.3
20260906180804 70 151 1.7 2.6 0.00 0.00 0.00 71 1024.2
20260906180303 70 1 0.0 2.6 0.00 0.00 0.00 69 1024.2
20260906175804 71 153 0.9 2.6 0.00 0.00 0.00 68 1024.0
20260906175306 71 7 1.7 2.6 0.00 0.00 0.00 66 1024.0
20260906174304 72 352 0.0 0.0 0.00 0.00 0.00 64 1024.1
20260906173804 72 0 0.0 2.6 0.00 0.00 0.00 64 1024.1
20260906173304 73 330 0.9 4.3 0.00 0.00 0.00 63 1024.0
20260906171304 74 351 2.6 5.2 0.00 0.00 0.00 61 1023.9
20260906165804 75 342 4.3 7.0 0.00 0.00 0.00 59 1023.9
20260906165306 75 326 2.6 5.2 0.00 0.00 0.00 59 1023.9
20260906164804 75 321 1.7 6.1 0.00 0.00 0.00 60 1023.9
20260906164303 75 342 2.6 7.8 0.00 0.00 0.00 59 1023.8
20260906163803 75 340 5.2 7.8 0.00 0.00 0.00 59 1023.9
20260906163303 75 325 4.3 8.7 0.00 0.00 0.00 59 1023.9
20260906162306 75 326 4.3 8.7 0.00 0.00 0.00 59 1023.8
20260906161803 75 331 4.3 10.4 0.00 0.00 0.00 58 1023.8
20260906160804 76 327 5.2 10.4 0.00 0.00 0.00 58 1023.9
20260906155804 76 340 4.3 10.4 0.00 0.00 0.00 58 1023.8
20260906155306 76 319 4.3 7.8 0.00 0.00 0.00 58 1023.8
20260906153804 76 310 4.3 10.4 0.00 0.00 0.00 58 1023.7
20260906153304 76 309 4.3 10.4 0.00 0.00 0.00 58 1023.8
20260906152804 76 329 6.1 10.4 0.00 0.00 0.00 57 1023.8
20260906151304 77 331 5.2 8.7 0.00 0.00 0.00 57 1024.0
20260906145804 76 343 4.3 8.7 0.00 0.00 0.00 57 1023.9
20260906145306 77 327 6.1 8.7 0.00 0.00 0.00 56 1024.0
20260906144804 77 339 4.3 10.4 0.00 0.00 0.00 57 1024.0
20260906143804 77 322 6.1 11.3 0.00 0.00 0.00 57 1024.1
20260906143304 77 346 5.2 11.3 0.00 0.00 0.00 57 1024.0
20260906142804 77 6 3.5 8.7 0.00 0.00 0.00 57 1024.1
20260906142306 77 344 5.2 10.4 0.00 0.00 0.00 56 1024.2
20260906141804 77 323 6.1 10.4 0.00 0.00 0.00 57 1024.3
20260906141304 77 315 4.3 10.4 0.00 0.00 0.00 58 1024.3
20260906140804 77 334 3.5 10.4 0.00 0.00 0.00 58 1024.4
20260906135803 76 327 5.2 10.4 0.00 0.00 0.00 58 1024.4
20260906135306 77 3 4.3 10.4 0.00 0.00 0.00 58 1024.4
20260906134804 77 326 5.2 10.4 0.00 0.00 0.00 56 1024.5
20260906133803 76 327 6.1 10.4 0.00 0.00 0.00 57 1024.6
20260906133303 76 354 7.0 11.3 0.00 0.00 0.00 58 1024.7
20260906132804 76 0 5.2 11.3 0.00 0.00 0.00 58 1024.7
20260906132306 77 355 4.3 10.4 0.00 0.00 0.00 58 1024.7
20260906131804 76 334 4.3 10.4 0.00 0.00 0.00 59 1024.9
20260906131304 76 346 4.3 10.4 0.00 0.01 0.00 60 1024.8
20260906130803 76 354 5.2 11.3 0.00 0.02 0.00 59 1024.8
20260906130304 76 343 5.2 11.3 0.00 0.02 0.00 59 1025.0
20260906125804 76 328 4.3 10.4 0.00 0.02 0.00 59 1024.8
20260906125306 76 331 5.2 10.4 0.00 0.02 0.00 59 1024.8
20260906124804 76 311 5.2 10.4 0.00 0.02 0.00 59 1024.8
20260906124304 76 349 2.6 10.4 0.00 0.02 0.00 59 1024.9
20260906123804 76 349 4.3 10.4 0.00 0.02 0.00 60 1024.8
20260906122804 75 291 7.8 12.2 0.00 0.02 0.00 60 1024.9
20260906122306 75 355 6.1 12.2 0.00 0.02 0.00 60 1024.9
20260906120304 74 320 6.1 12.2 0.00 0.02 0.00 60 1025.0
20260906115804 75 353 5.2 10.4 0.00 0.02 0.00 59 1025.0
20260906115306 75 0 4.3 7.8 0.00 0.02 0.00 60 1025.1
20260906114804 75 338 5.2 10.4 0.00 0.02 0.00 60 1025.1
20260906112306 74 0 5.2 8.7 0.00 0.02 0.00 61 1025.2
20260906111304 74 356 5.2 10.4 0.00 0.02 0.00 61 1025.2
20260906110304 73 287 4.3 10.4 0.00 0.02 0.00 62 1025.3
20260906105804 73 340 6.1 10.4 0.00 0.02 0.00 63 1025.3
20260906105306 73 356 3.5 10.4 0.00 0.02 0.00 64 1025.5
20260906103803 72 289 5.2 12.2 0.00 0.02 0.00 65 1025.6
20260906103304 72 289 4.3 8.7 0.00 0.02 0.00 64 1025.7
20260906102804 72 331 3.5 10.4 0.00 0.02 0.00 66 1025.8
20260906102306 71 276 4.3 12.2 0.00 0.02 0.00 69 1026.1
20260906101304 71 0 3.5 10.4 0.00 0.02 0.00 70 1026.1
20260906100804 70 3 4.3 8.7 0.00 0.02 0.00 72 1026.1
20260906100311 70 305 5.2 8.7 0.00 0.02 0.00 72 1026.3
20260906093804 68 354 4.3 8.7 0.00 0.02 0.00 76 1026.2
20260906092306 67 331 2.6 5.2 0.00 0.02 0.00 76 1026.4
20260906091303 67 273 1.7 6.1 0.00 0.02 0.00 77 1026.4
20260906090803 67 332 1.7 5.2 0.00 0.02 0.00 78 1026.5
20260906085803 66 332 1.7 6.1 0.00 0.02 0.00 79 1026.5
20260906083804 65 15 1.7 5.2 0.00 0.02 0.00 81 1026.7
20260906082804 65 317 2.6 5.2 0.00 0.02 0.00 80 1026.7
20260906082306 64 293 1.7 2.6 0.00 0.02 0.00 81 1026.7
20260906080804 63 317 0.0 2.6 0.00 0.02 0.00 83 1026.8
20260906074803 61 0 1.7 2.6 0.00 0.02 0.00 84 1026.8
20260906074303 61 349 2.6 2.6 0.00 0.02 0.00 84 1026.6
20260906073803 61 14 1.7 2.6 0.00 0.02 0.00 85 1026.6
20260906073303 61 346 0.9 2.6 0.00 0.02 0.00 85 1026.6
20260906072804 60 30 0.0 0.0 0.00 0.02 0.00 86 1026.5
20260906072306 60 37 0.0 2.6 0.00 0.02 0.00 87 1026.6
20260906071803 60 22 0.0 2.6 0.00 0.02 0.00 89 1026.6
20260906071303 59 11 1.7 4.3 0.00 0.02 0.00 88 1026.6
20260906070803 59 355 2.6 4.3 0.00 0.02 0.00 89 1026.6
20260906065305 58 0 0.0 0.0 0.00 0.02 0.00 92 1026.4
20260906064803 57 2 0.0 0.0 0.00 0.02 0.00 92 1026.4
20260906063804 57 0 0.0 0.0 0.00 0.02 0.00 93 1026.5
20260906063303 56 1 0.0 0.0 0.00 0.02 0.00 94 1026.5
20260906062306 55 0 0.0 0.0 0.00 0.02 0.00 94 1026.5
20260906061303 55 0 0.0 1.7 0.00 0.02 0.00 94 1026.5
20260906060803 54 0 0.9 2.6 0.00 0.02 0.00 94 1026.4
20260906055306 54 0 0.9 2.6 0.00 0.02 0.00 94 1026.5
20260906054804 54 0 0.0 0.0 0.00 0.02 0.00 94 1026.5
20260906053804 54 0 0.0 0.0 0.00 0.02 0.00 94 1026.5
20260906053303 54 1 0.0 0.0 0.00 0.02 0.00 94 1026.6
20260906051803 54 4 0.0 0.0 0.00 0.02 0.00 94 1026.6
20260906050803 54 0 0.0 0.0 0.00 0.02 0.00 94 1026.5
20260906045803 54 3 0.0 0.0 0.00 0.02 0.00 94 1026.5
20260906045305 54 0 0.0 0.0 0.00 0.02 0.00 94 1026.4
20260906044803 54 15 0.0 0.0 0.00 0.02 0.00 94 1026.4
20260906044304 54 1 0.0 1.7 0.00 0.02 0.00 94 1026.4
20260906043303 54 4 0.9 2.6 0.00 0.02 0.00 94 1026.4
20260906042306 54 0 0.9 2.6 0.00 0.02 0.00 94 1026.4
20260906041803 54 0 0.0 0.0 0.00 0.02 0.00 94 1026.3
20260906035803 54 0 0.0 0.0 0.00 0.02 0.00 93 1026.4
20260906035306 54 4 0.0 0.0 0.00 0.02 0.00 93 1026.4
20260906034804 55 4 0.0 0.0 0.00 0.02 0.00 93 1026.4
20260906034303 55 0 0.0 0.0 0.00 0.02 0.00 93 1026.4
20260906033803 55 1 0.0 0.0 0.00 0.02 0.00 93 1026.3
20260906033303 55 0 0.0 0.0 0.00 0.02 0.00 93 1026.3
20260906032803 55 4 0.0 0.0 0.00 0.02 0.00 93 1026.4
20260906032306 55 1 0.0 0.0 0.00 0.02 0.00 93 1026.4
20260906031803 55 3 0.0 0.0 0.00 0.02 0.00 93 1026.4
20260906030804 55 1 0.0 0.0 0.00 0.02 0.00 93 1026.4
20260906030304 55 0 0.0 0.0 0.00 0.02 0.00 93 1026.5
20260906025804 55 0 0.0 0.0 0.00 0.02 0.00 93 1026.4
20260906024803 55 4 0.0 0.0 0.00 0.02 0.00 93 1026.4
20260906023303 55 0 0.0 0.0 0.00 0.02 0.00 92 1026.3
20260906020804 56 10 0.0 0.0 0.00 0.02 0.00 92 1026.2
20260906015803 56 2 0.0 0.0 0.00 0.02 0.00 92 1026.3
20260906015306 57 0 0.0 0.9 0.00 0.02 0.00 92 1026.3
20260906014304 57 2 0.0 0.9 0.00 0.02 0.00 92 1026.3
20260906013803 57 1 0.0 0.9 0.00 0.02 0.00 92 1026.2
20260906013304 57 0 0.0 0.0 0.00 0.02 0.00 92 1026.1
20260906012306 57 0 0.0 0.0 0.00 0.02 0.00 92 1026.2
20260906011804 57 0 0.0 0.0 0.00 0.02 0.00 92 1026.2
20260906010304 58 0 0.0 1.7 0.00 0.02 0.00 92 1026.2
20260906005804 58 0 0.9 1.7 0.00 0.02 0.00 91 1026.1
20260906005306 58 0 0.0 0.0 0.00 0.02 0.00 91 1026.2
20260906004803 58 4 0.0 0.0 0.00 0.02 0.00 91 1026.2
20260906004304 58 3 0.0 0.0 0.00 0.02 0.00 91 1026.3
20260906003804 58 0 0.0 0.0 0.00 0.02 0.00 91 1026.2
20260906003304 58 0 0.0 0.0 0.00 0.02 0.00 91 1026.2
20260906002804 58 0 0.0 0.0 0.00 0.02 0.00 91 1026.2
20260906001804 59 2 0.0 0.0 0.00 0.02 0.00 91 1026.3
20260906000804 59 0 0.0 0.0 0.00 0.02 0.00 90 1026.4
20260905235306 60 0 0.9 1.7 0.00 0.02 0.00 90 1026.6
20260905234803 60 0 0.0 1.7 0.00 0.02 0.00 90 1026.6
20260905234304 60 0 0.9 1.7 0.00 0.02 0.00 90 1026.5
20260905233804 60 4 0.0 2.6 0.00 0.02 0.00 89 1026.5
20260905233303 60 0 0.0 2.6 0.00 0.02 0.00 89 1026.6
20260905232804 60 0 0.0 0.0 0.00 0.02 0.00 89 1026.6
20260905232306 60 3 0.0 0.0 0.00 0.02 0.00 89 1026.5
20260905231804 61 2 0.0 0.0 0.00 0.02 0.00 89 1026.5
20260905231304 61 0 0.0 0.0 0.00 0.02 0.00 89 1026.6
20260905230804 61 0 0.0 0.0 0.00 0.02 0.00 88 1026.6
20260905230303 61 0 0.0 1.7 0.00 0.02 0.00 88 1026.6
20260905225804 61 0 0.0 1.7 0.00 0.02 0.00 88 1026.6
20260905225305 61 0 0.9 2.6 0.00 0.02 0.00 88 1026.6
20260905224803 61 1 0.9 2.6 0.00 0.02 0.00 88 1026.6
20260905224303 61 0 1.7 2.6 0.00 0.02 0.00 88 1026.5
20260905223803 61 0 1.7 2.6 0.00 0.02 0.00 88 1026.5
20260905223305 62 0 0.0 0.0 0.00 0.02 0.00 88 1026.5
20260905222804 62 2 0.0 0.0 0.00 0.02 0.00 88 1026.5